Location: Tierra del Sol
(32.6128°N, 116.3319°W)
Time: 07:08:15
(UTC-07:00)

Vanguard 2 - Pass Details

Date: 25 April 2018
Orbit: 554 x 2938 km, 32.9° (Epoch: 19 September)

Event Time Altitude Azimuth Distance (km) Brightness Sun altitude
Rises 20:04:38 0° 227° (SW) 6,566 12.6 -9.2°
Reaches altitude 10° 20:09:37 10° 222° (SW) 5,322 12.0 -10.1°
Maximum altitude 20:23:20 46° 156° (SSE) 2,437 9.7 -12.8°
Enters shadow 20:31:24 13° 88° (E) 3,294 10.2 -14.3°
Drops below altitude 10° 20:32:04 10° 86° (E) 3,464 - -14.4°
Sets 20:34:36 0° 80° (E) 4,167 - -14.9°
